Powrót do katalogu

XINZHENGCHENG 02

AktywnyMilitariaPO
NORAD 68412·PAYLOAD·🇨🇳 China

Wystrzelony Mar 30, 2026 z Jiuquan Satellite Launch Center

Loading…

Następne Przeloty (najbliższe 24 godziny)

TLE

ŚwieżeSource: Space-Track

Epoka: Sep 13, 2026, 20:03 UTC

1 68412U 26066A   26256.83575323  .00000410  00000-0  40818-4 0  9998
2 68412  84.9709 171.3647 0023710 307.3035  52.6027 14.88481931 24918

Śledź XINZHENGCHENG 02 w czasie rzeczywistym z AllMySat

Download on the App Store